Home > Time Zones > World Clock > Weather > U.S.A. > Adak > Past weeks

Flag for U.S.A. Weather past 2 weeks in Adak, Alaska, U.S.A.

Now
59 °F

Mostly cloudy.


Feels Like: 55 °F
Forecast: 54 / 57 °F
Wind: 20 mph from South

Location: Adak

Current Time: Aug 29, 2015 at 10:52:01 AM

Latest Report: Aug 29, 2015 at 10:36 AM


Visibility: 10 mi

Pressure: 30.01 "Hg

Humidity: 77%

Dew point: 52 °F

Location of AdakLocation

Historic Weather in Adak — Graph

°F

Adak temperature yesterday

Maximum temperature yesterday: 63 °F (at 2:36 PM)
Minimum temperature yesterday: 52 °F (at 4:56 AM)
Average temperature yesterday: 57 °F

Past Weeks' High & Low Weather Summary

 TemperatureHumidityPressure
High68 °F (Aug 27, 2:36 PM)87% (Aug 18, 8:36 AM)30.60 "Hg (Aug 18, 8:36 AM)
Low36 °F (Aug 22, 5:56 AM)51% (Aug 22, 2:36 PM)29.72 "Hg (Aug 15, 8:16 PM)
Average52 °F73%30.24 "Hg
* Reported Aug 14 9:16 AM — Aug 29 9:56 AM, Adak, Weather by CustomWeather, © 2015

Note: Actual official high and low records may vary slightly from our data, if they occured in-between our weather recording intervals... More about our weather records

Advertising

Adak weather history for previous 24 hours

 ConditionsComfort  
Time TempWeatherWind HumidityBarometerVisibility
9:56 AM
Sat, Aug 29
59 °FBroken clouds.24 mph72%30.02 "Hg10 mi
9:36 AM59 °FPartly sunny.24 mph72%30.01 "Hg10 mi
9:16 AM59 °FMostly cloudy.23 mph72%30.02 "Hg10 mi
8:56 AM57 °FMore clouds than sun.22 mph77%30.03 "Hg10 mi
8:36 AM57 °FMore clouds than sun.24 mph77%30.03 "Hg10 mi
8:16 AM57 °FOvercast.25 mph77%30.04 "Hg10 mi
7:56 AM55 °FMostly cloudy.23 mph77%30.04 "Hg10 mi
7:36 AM55 °FMostly cloudy.22 mph77%30.05 "Hg10 mi
7:16 AM55 °FOvercast.20 mph77%30.06 "Hg10 mi
6:56 AM55 °FPassing clouds.15 mph77%30.07 "Hg10 mi
6:36 AM55 °FPassing clouds.12 mph77%30.07 "Hg10 mi
6:16 AM55 °FClear.25 mph77%30.07 "Hg10 mi
5:56 AM55 °FClear.21 mph77%30.07 "Hg10 mi
5:36 AM55 °FPassing clouds.23 mph77%30.08 "Hg10 mi
5:16 AM57 °FPassing clouds.23 mph72%30.09 "Hg10 mi
4:56 AM55 °FPassing clouds.25 mph77%30.10 "Hg10 mi
4:36 AM55 °FPassing clouds.25 mph77%30.11 "Hg10 mi
4:16 AM55 °FPassing clouds.23 mph77%30.11 "Hg10 mi
3:56 AM55 °FPartly cloudy.23 mph77%30.12 "Hg10 mi
3:16 AM55 °FPassing clouds.25 mph77%30.14 "Hg10 mi
2:56 AM55 °FPassing clouds.26 mph77%30.14 "Hg10 mi
2:36 AM57 °FClear.28 mph77%30.15 "Hg10 mi
2:16 AM57 °FPassing clouds.25 mph77%30.16 "Hg10 mi
1:56 AM57 °FPassing clouds.23 mph72%30.17 "Hg10 mi
1:16 AM57 °FPassing clouds.23 mph72%30.18 "Hg10 mi
12:56 AM57 °FOvercast.20 mph72%30.19 "Hg10 mi
12:36 AM57 °FOvercast.23 mph77%30.20 "Hg10 mi
12:16 AM57 °FPartly cloudy.23 mph77%30.21 "Hg10 mi
11:56 PM
Fri, Aug 28
57 °FPassing clouds.24 mph72%30.21 "Hg10 mi
11:16 PM55 °FPassing clouds.18 mph77%30.23 "Hg10 mi
10:56 PM55 °FPassing clouds.21 mph77%30.23 "Hg10 mi
10:36 PM55 °FMostly cloudy.23 mph77%30.24 "Hg10 mi
10:16 PM55 °FPassing clouds.22 mph77%30.23 "Hg10 mi
9:56 PM57 °FPassing clouds.20 mph72%30.24 "Hg10 mi
8:56 PM57 °FBroken clouds.7 mph72%30.25 "Hg10 mi
8:36 PM57 °FScattered clouds.No wind72%30.25 "Hg10 mi
8:16 PM61 °FSunny.14 mph68%30.25 "Hg10 mi
7:56 PM61 °FPassing clouds.8 mph63%30.26 "Hg10 mi
6:56 PM63 °FSunny.12 mph68%30.27 "Hg10 mi
6:16 PM61 °FPartly sunny.13 mph68%30.29 "Hg10 mi
5:56 PM61 °FScattered clouds.14 mph63%30.29 "Hg10 mi
5:36 PM61 °FSunny.17 mph63%30.30 "Hg10 mi
5:16 PM61 °FSunny.17 mph63%30.30 "Hg10 mi
4:56 PM61 °FSunny.20 mph68%30.31 "Hg10 mi
4:36 PM61 °FSunny.23 mph68%30.32 "Hg10 mi
4:16 PM61 °FSunny.22 mph68%30.32 "Hg10 mi
3:56 PM63 °FSunny.21 mph64%30.33 "Hg10 mi
3:36 PM61 °FSunny.23 mph68%30.34 "Hg10 mi
3:16 PM63 °FSunny.23 mph64%30.34 "Hg10 mi
2:56 PM63 °FSunny.21 mph64%30.35 "Hg10 mi
2:36 PM63 °FSunny.21 mph64%30.36 "Hg10 mi
2:16 PM61 °FSunny.20 mph68%30.36 "Hg10 mi
1:56 PM61 °FSunny.22 mph68%30.36 "Hg10 mi
1:36 PM61 °FSunny.21 mph63%30.37 "Hg10 mi
12:56 PM61 °FSunny.22 mph63%30.38 "Hg10 mi
12:36 PM61 °FSunny.22 mph63%30.38 "Hg10 mi
12:16 PM59 °FSunny.21 mph68%30.39 "Hg10 mi
11:56 AM57 °FSunny.21 mph72%30.39 "Hg10 mi
11:36 AM57 °FSunny.21 mph72%30.40 "Hg10 mi
11:16 AM55 °FSunny.20 mph72%30.40 "Hg10 mi
10:56 AM55 °FScattered clouds.18 mph72%30.41 "Hg10 mi
10:36 AM54 °FPartly sunny.15 mph77%30.41 "Hg10 mi
10:16 AM54 °FBroken clouds.14 mph77%30.42 "Hg10 mi
Weather by CustomWeather, © 2015

See weather overviewHow to use our weather pages